| time (UTC) | temp F | wind direction | speed knots | gust knots | rain 1hr in | rain 24hr in | rain mn in | humidity % | barometer mb |
| 20260505115003 | 54 | 341 | 4.3 | 7.0 | 0.00 | 0.00 | 0.00 | 52 | 1013.4 |
| 20260505114004 | 54 | 341 | 3.5 | 6.1 | 0.00 | 0.00 | 0.00 | 53 | 1013.4 |
| 20260505113003 | 54 | 341 | 2.6 | 5.2 | 0.00 | 0.00 | 0.00 | 54 | 1013.4 |
| 20260505112214 | 54 | 346 | 2.6 | 6.1 | 0.00 | 0.00 | 0.00 | 54 | 1013.5 |
| 20260505111214 | 54 | 344 | 1.7 | 4.3 | 0.00 | 0.00 | 0.00 | 55 | 1013.5 |
| 20260505102003 | 55 | 344 | 3.5 | 5.2 | 0.00 | 0.00 | 0.00 | 51 | 1013.2 |
| 20260505101003 | 54 | 341 | 2.6 | 5.2 | 0.00 | 0.00 | 0.00 | 53 | 1013.1 |
| 20260505100003 | 54 | 347 | 2.6 | 5.2 | 0.00 | 0.00 | 0.00 | 53 | 1013.0 |
| 20260505095003 | 54 | 340 | 2.6 | 4.3 | 0.00 | 0.00 | 0.00 | 51 | 1013.1 |
| 20260505094003 | 55 | 341 | 2.6 | 4.3 | 0.00 | 0.00 | 0.00 | 50 | 1013.0 |
| 20260505093004 | 54 | 344 | 3.5 | 5.2 | 0.00 | 0.00 | 0.00 | 50 | 1013.0 |
| 20260505092213 | 55 | 341 | 3.5 | 6.1 | 0.00 | 0.00 | 0.00 | 50 | 1013.0 |
| 20260505091003 | 55 | 341 | 3.5 | 5.2 | 0.00 | 0.00 | 0.00 | 49 | 1013.0 |
| 20260505090004 | 55 | 342 | 3.5 | 5.2 | 0.00 | 0.00 | 0.00 | 48 | 1013.0 |
| 20260505085003 | 56 | 337 | 2.6 | 5.2 | 0.00 | 0.00 | 0.00 | 47 | 1013.0 |
| 20260505084004 | 56 | 337 | 1.7 | 4.3 | 0.00 | 0.00 | 0.00 | 47 | 1013.0 |
| 20260505083003 | 56 | 339 | 2.6 | 5.2 | 0.00 | 0.00 | 0.00 | 47 | 1013.0 |
| 20260505082003 | 56 | 341 | 3.5 | 5.2 | 0.00 | 0.00 | 0.00 | 47 | 1013.0 |
| 20260505081003 | 57 | 344 | 3.5 | 5.2 | 0.00 | 0.00 | 0.00 | 47 | 1013.0 |
| 20260505080213 | 56 | 341 | 2.6 | 5.2 | 0.00 | 0.00 | 0.00 | 48 | 1013.0 |
| 20260505075003 | 57 | 328 | 0.9 | 4.3 | 0.00 | 0.00 | 0.00 | 46 | 1012.9 |
| 20260505074003 | 58 | 340 | 1.7 | 5.2 | 0.00 | 0.00 | 0.00 | 45 | 1012.9 |
| 20260505073003 | 58 | 333 | 0.9 | 4.3 | 0.00 | 0.00 | 0.00 | 46 | 1012.8 |
| 20260505072003 | 59 | 322 | 0.0 | 3.5 | 0.00 | 0.00 | 0.00 | 45 | 1012.7 |
| 20260505071003 | 60 | 319 | 0.0 | 3.5 | 0.00 | 0.00 | 0.00 | 45 | 1012.6 |
| 20260505070004 | 60 | 317 | 0.9 | 4.3 | 0.00 | 0.00 | 0.00 | 43 | 1012.5 |
| 20260505065003 | 60 | 322 | 0.9 | 3.5 | 0.00 | 0.00 | 0.00 | 43 | 1012.4 |
| 20260505064003 | 60 | 325 | 0.9 | 4.3 | 0.00 | 0.00 | 0.00 | 45 | 1012.5 |
| 20260505063003 | 59 | 325 | 0.9 | 3.5 | 0.00 | 0.00 | 0.00 | 47 | 1012.5 |
| 20260505062003 | 58 | 333 | 0.0 | 2.6 | 0.00 | 0.00 | 0.00 | 49 | 1012.4 |
| 20260505061003 | 60 | 319 | 0.9 | 5.2 | 0.00 | 0.00 | 0.00 | 47 | 1012.3 |
| 20260505060003 | 60 | 314 | 1.7 | 6.1 | 0.00 | 0.00 | 0.00 | 47 | 1012.3 |
| 20260505055003 | 60 | 310 | 1.7 | 5.2 | 0.00 | 0.00 | 0.00 | 48 | 1012.3 |
| 20260505054003 | 60 | 310 | 1.7 | 6.1 | 0.00 | 0.00 | 0.00 | 48 | 1012.2 |
| 20260505053004 | 61 | 310 | 1.7 | 6.1 | 0.00 | 0.00 | 0.00 | 47 | 1012.3 |
| 20260505052003 | 61 | 309 | 1.7 | 7.0 | 0.00 | 0.00 | 0.00 | 47 | 1012.2 |
| 20260505051003 | 61 | 312 | 2.6 | 6.1 | 0.00 | 0.00 | 0.00 | 47 | 1012.2 |
| 20260505041003 | 63 | 313 | 0.9 | 7.0 | 0.00 | 0.00 | 0.00 | 37 | 1011.7 |
| 20260505040004 | 63 | 315 | 1.7 | 7.0 | 0.00 | 0.00 | 0.00 | 37 | 1011.6 |
| 20260505035004 | 63 | 343 | 0.9 | 3.5 | 0.00 | 0.00 | 0.00 | 37 | 1011.5 |
| 20260505034003 | 64 | 340 | 1.7 | 3.5 | 0.00 | 0.00 | 0.00 | 36 | 1011.3 |
| 20260505033003 | 66 | 355 | 1.7 | 3.5 | 0.00 | 0.00 | 0.00 | 35 | 1011.3 |
| 20260505032213 | 66 | 1 | 2.6 | 5.2 | 0.00 | 0.00 | 0.00 | 34 | 1011.2 |
| 20260505031004 | 67 | 360 | 2.6 | 6.1 | 0.00 | 0.00 | 0.00 | 33 | 1011.2 |
| 20260505030003 | 68 | 5 | 2.6 | 7.0 | 0.00 | 0.00 | 0.00 | 32 | 1011.0 |
| 20260505025004 | 69 | 3 | 2.6 | 5.2 | 0.00 | 0.00 | 0.00 | 31 | 1010.9 |
| 20260505024003 | 69 | 1 | 1.7 | 6.1 | 0.00 | 0.00 | 0.00 | 31 | 1010.8 |
| 20260505023003 | 69 | 6 | 2.6 | 7.0 | 0.00 | 0.00 | 0.00 | 32 | 1010.7 |
| 20260505022003 | 69 | 5 | 1.7 | 5.2 | 0.00 | 0.00 | 0.00 | 32 | 1010.7 |
| 20260505021214 | 69 | 11 | 1.7 | 7.0 | 0.00 | 0.00 | 0.00 | 32 | 1010.7 |
| 20260505020214 | 69 | 13 | 3.5 | 8.7 | 0.00 | 0.00 | 0.00 | 32 | 1010.7 |
| 20260505015003 | 70 | 14 | 4.3 | 10.4 | 0.00 | 0.00 | 0.00 | 30 | 1010.7 |
| 20260505014003 | 70 | 6 | 3.5 | 8.7 | 0.00 | 0.00 | 0.00 | 29 | 1010.7 |
| 20260505013003 | 70 | 5 | 3.5 | 7.0 | 0.00 | 0.00 | 0.00 | 25 | 1010.7 |
| 20260505012003 | 71 | 360 | 1.7 | 7.0 | 0.00 | 0.00 | 0.00 | 25 | 1010.8 |
| 20260505011003 | 71 | 350 | 0.0 | 3.5 | 0.00 | 0.00 | 0.00 | 25 | 1010.8 |
| 20260505010003 | 72 | 320 | 0.0 | 1.7 | 0.00 | 0.00 | 0.00 | 25 | 1010.8 |
| 20260505005004 | 72 | 319 | 1.7 | 5.2 | 0.00 | 0.00 | 0.00 | 25 | 1010.8 |
| 20260505004003 | 72 | 311 | 0.0 | 4.3 | 0.00 | 0.00 | 0.00 | 26 | 1010.8 |
| 20260505003003 | 71 | 357 | 0.9 | 4.3 | 0.00 | 0.00 | 0.00 | 29 | 1010.8 |
| 20260505002003 | 71 | 300 | 2.6 | 3.5 | 0.00 | 0.00 | 0.00 | 30 | 1010.8 |
| 20260505001214 | 71 | 292 | 0.9 | 3.5 | 0.00 | 0.00 | 0.00 | 31 | 1010.8 |
| 20260505000003 | 71 | 293 | 0.0 | 2.6 | 0.00 | 0.00 | 0.00 | 29 | 1010.7 |
| 20260504235003 | 72 | 0 | 0.0 | 0.0 | 0.00 | 0.00 | 0.00 | 28 | 1010.8 |
| 20260504234003 | 72 | 285 | 0.0 | 2.6 | 0.00 | 0.00 | 0.00 | 27 | 1010.8 |
| 20260504233003 | 72 | 294 | 0.0 | 3.5 | 0.00 | 0.00 | 0.00 | 25 | 1010.8 |
| 20260504232003 | 73 | 310 | 0.0 | 2.6 | 0.00 | 0.00 | 0.00 | 25 | 1010.9 |
| 20260504231003 | 72 | 311 | 0.9 | 4.3 | 0.00 | 0.00 | 0.00 | 25 | 1010.9 |
| 20260504230215 | 72 | 304 | 1.7 | 5.2 | 0.00 | 0.00 | 0.00 | 25 | 1011.0 |
| 20260504225213 | 73 | 291 | 3.5 | 7.8 | 0.00 | 0.00 | 0.00 | 25 | 1011.0 |
| 20260504224003 | 74 | 254 | 4.3 | 9.6 | 0.00 | 0.00 | 0.00 | 24 | 1011.0 |
| 20260504223003 | 74 | 239 | 3.5 | 13.0 | 0.00 | 0.00 | 0.00 | 24 | 1011.1 |
| 20260504222003 | 73 | 233 | 3.5 | 10.4 | 0.00 | 0.00 | 0.00 | 24 | 1011.2 |
| 20260504221003 | 73 | 249 | 4.3 | 10.4 | 0.00 | 0.00 | 0.00 | 24 | 1011.2 |
| 20260504220003 | 74 | 232 | 3.5 | 7.8 | 0.00 | 0.00 | 0.00 | 26 | 1011.3 |
| 20260504215003 | 73 | 272 | 2.6 | 8.7 | 0.00 | 0.00 | 0.00 | 25 | 1011.4 |
| 20260504214003 | 73 | 241 | 3.5 | 8.7 | 0.00 | 0.00 | 0.00 | 25 | 1011.5 |
| 20260504213212 | 73 | 237 | 3.5 | 9.6 | 0.00 | 0.00 | 0.00 | 25 | 1011.6 |
| 20260504212003 | 72 | 241 | 2.6 | 7.0 | 0.00 | 0.00 | 0.00 | 25 | 1011.6 |
| 20260504211003 | 72 | 264 | 5.2 | 10.4 | 0.00 | 0.00 | 0.00 | 25 | 1011.8 |
| 20260504210003 | 73 | 197 | 4.3 | 9.6 | 0.00 | 0.00 | 0.00 | 25 | 1011.8 |
| 20260504205003 | 72 | 255 | 3.5 | 8.7 | 0.00 | 0.00 | 0.00 | 25 | 1012.0 |
| 20260504204003 | 72 | 271 | 2.6 | 9.6 | 0.00 | 0.00 | 0.00 | 26 | 1011.9 |
| 20260504203003 | 72 | 248 | 3.5 | 7.8 | 0.00 | 0.00 | 0.00 | 24 | 1012.1 |
| 20260504202003 | 72 | 156 | 3.5 | 8.7 | 0.00 | 0.00 | 0.00 | 27 | 1012.1 |
| 20260504201003 | 71 | 222 | 3.5 | 9.6 | 0.00 | 0.00 | 0.00 | 25 | 1012.3 |
| 20260504200004 | 72 | 231 | 3.5 | 7.8 | 0.00 | 0.00 | 0.00 | 24 | 1012.4 |
| 20260504195214 | 71 | 266 | 3.5 | 7.0 | 0.00 | 0.00 | 0.00 | 24 | 1012.4 |
| 20260504194214 | 72 | 239 | 2.6 | 9.6 | 0.00 | 0.00 | 0.00 | 24 | 1012.5 |
| 20260504193003 | 72 | 278 | 1.7 | 7.0 | 0.00 | 0.00 | 0.00 | 24 | 1012.6 |
| 20260504192214 | 71 | 343 | 2.6 | 7.0 | 0.00 | 0.00 | 0.00 | 23 | 1012.6 |
| 20260504191003 | 70 | 48 | 6.1 | 11.3 | 0.00 | 0.00 | 0.00 | 25 | 1012.5 |
| 20260504190003 | 70 | 41 | 4.3 | 12.2 | 0.00 | 0.00 | 0.00 | 24 | 1012.7 |
| 20260504185003 | 70 | 23 | 3.5 | 7.0 | 0.00 | 0.00 | 0.00 | 23 | 1012.7 |
| 20260504184003 | 70 | 16 | 4.3 | 9.6 | 0.00 | 0.00 | 0.00 | 25 | 1012.8 |
| 20260504183004 | 70 | 9 | 5.2 | 10.4 | 0.00 | 0.00 | 0.00 | 23 | 1012.7 |
| 20260504182003 | 69 | 11 | 7.0 | 13.9 | 0.00 | 0.00 | 0.00 | 24 | 1012.9 |
| 20260504181003 | 69 | 16 | 6.1 | 13.0 | 0.00 | 0.00 | 0.00 | 25 | 1012.9 |
| 20260504180003 | 69 | 28 | 7.8 | 13.9 | 0.00 | 0.00 | 0.00 | 25 | 1013.0 |
| 20260504175003 | 69 | 16 | 6.1 | 13.0 | 0.00 | 0.00 | 0.00 | 25 | 1012.9 |
| 20260504174003 | 68 | 13 | 7.0 | 11.3 | 0.00 | 0.00 | 0.00 | 26 | 1012.9 |
| 20260504173003 | 68 | 11 | 6.1 | 13.0 | 0.00 | 0.00 | 0.00 | 25 | 1012.9 |
| 20260504172003 | 68 | 13 | 7.0 | 12.2 | 0.00 | 0.00 | 0.00 | 27 | 1012.7 |
| 20260504171003 | 68 | 9 | 7.0 | 15.6 | 0.00 | 0.00 | 0.00 | 24 | 1012.7 |
| 20260504170213 | 68 | 3 | 7.8 | 13.9 | 0.00 | 0.00 | 0.00 | 25 | 1012.8 |
| 20260504160215 | 67 | 350 | 7.0 | 11.3 | 0.00 | 0.00 | 0.00 | 25 | 1012.7 |
| 20260504151003 | 65 | 353 | 4.3 | 8.7 | 0.00 | 0.00 | 0.00 | 27 | 1012.8 |
| 20260504141003 | 63 | 330 | 1.7 | 5.2 | 0.00 | 0.00 | 0.00 | 34 | 1012.5 |